�N����,����,�~����,�C��,���x,�C��,����,���ϕ���,�ő�u�ԕ���,�ő厞����,���˗�,�I�_���x,�n�����x,�ő啗���N��,DTYPE
"21/07/01","00:10",0.4,22.0,92.8,1005.0,23.0,0.3,1.8,39.1,0.00,20.8,24.0,"00:03:36",1
"21/07/01","00:20",0.2,21.9,92.9,1004.8,329.3,0.3,1.2,26.5,0.00,20.7,24.1,"00:16:24",1
"21/07/01","00:30",0.4,21.9,93.1,1005.0,209.9,0.3,0.8,119.9,0.00,20.8,24.0,"00:20:48",1
"21/07/01","00:40",0.4,21.9,93.2,1005.2,299.7,0.7,1.2,246.6,0.00,20.8,24.2,"00:30:24",1
"21/07/01","00:50",0.6,21.9,93.2,1005.0,316.7,0.7,1.2,333.0,0.00,20.8,24.0,"00:40:16",1
"21/07/01","01:00",1.2,21.9,93.3,1005.2,250.0,0.7,1.2,242.4,0.00,20.8,24.0,"00:53:28",1
"21/07/01","01:10",1.0,21.9,93.5,1005.5,275.6,0.7,1.2,244.2,0.00,20.8,23.9,"01:02:08",1
"21/07/01","01:20",0.8,21.9,93.5,1005.2,2.4,0.5,1.6,359.8,0.00,20.8,23.9,"01:18:40",1
"21/07/01","01:30",0.6,21.8,93.6,1004.8,333.6,0.7,1.3,339.9,0.00,20.8,23.8,"01:20:40",1
"21/07/01","01:40",1.0,21.8,93.7,1005.2,327.8,0.6,1.0,330.8,0.00,20.8,23.7,"01:34:56",1
"21/07/01","01:50",0.6,21.7,93.8,1004.8,294.4,0.5,1.0,335.4,0.00,20.7,23.7,"01:41:12",1
"21/07/01","02:00",1.2,21.6,93.9,1004.8,286.9,0.3,0.8,329.4,0.00,20.6,23.7,"01:53:52",1
"21/07/01","02:10",1.2,21.7,94.0,1003.6,91.5,0.2,0.8,135.5,0.00,20.7,23.6,"02:00:16",1
"21/07/01","02:20",0.8,21.7,94.1,1004.8,258.3,0.7,1.4,31.0,0.00,20.7,23.7,"02:10:56",1
"21/07/01","02:30",0.4,21.7,94.1,1004.5,304.3,0.6,1.2,256.3,0.00,20.7,23.8,"02:21:44",1
"21/07/01","02:40",0.2,21.7,94.3,1004.3,286.7,0.3,1.3,313.2,0.00,20.8,23.4,"02:39:04",1
"21/07/01","02:50",0.2,21.7,94.4,1004.5,20.7,0.6,1.6,104.8,0.00,20.8,23.6,"02:49:52",1
"21/07/01","03:00",0.0,21.8,94.4,1004.5,109.6,0.8,2.7,66.5,0.00,20.9,23.7,"02:57:52",1
"21/07/01","03:10",0.8,21.8,94.5,1004.5,54.4,0.8,1.9,95.7,0.00,20.9,23.6,"03:01:36",1
"21/07/01","03:20",1.2,21.8,94.5,1004.5,3.4,0.5,1.8,46.0,0.00,20.9,23.7,"03:11:20",1
"21/07/01","03:30",1.0,21.8,94.6,1004.8,355.6,0.6,2.0,339.5,0.00,20.9,23.3,"03:25:36",1
"21/07/01","03:40",0.8,21.7,94.7,1004.5,314.9,0.8,1.6,330.7,0.00,20.9,23.5,"03:34:16",1
"21/07/01","03:50",0.8,21.6,94.7,1004.5,205.9,0.6,1.6,207.4,0.00,20.8,23.3,"03:47:28",1
"21/07/01","04:00",0.6,21.6,94.8,1004.3,229.6,0.2,0.6,237.0,0.00,20.8,23.4,"03:52:08",1
"21/07/01","04:10",0.2,21.7,94.8,1004.5,268.5,0.5,1.9,235.3,0.00,20.9,23.3,"04:02:40",1
"21/07/01","04:20",0.0,21.7,94.9,1004.8,278.7,0.6,1.1,255.5,0.00,20.9,23.3,"04:16:16",1
"21/07/01","04:30",0.2,21.6,94.9,1004.5,250.0,0.7,1.3,226.0,0.00,20.8,23.4,"04:25:44",1
"21/07/01","04:40",0.2,21.7,94.9,1004.3,345.8,0.6,1.2,343.4,0.00,20.9,23.5,"04:38:32",1
"21/07/01","04:50",0.0,21.6,95.0,1004.1,340.0,0.7,1.6,348.1,0.00,20.8,23.2,"04:44:32",1
"21/07/01","05:00",0.6,21.6,95.0,1004.1,283.0,0.3,1.1,335.9,0.00,20.8,23.3,"04:51:04",1
"21/07/01","05:10",0.2,21.6,95.1,1003.8,277.6,0.2,1.2,340.2,0.00,20.8,23.4,"05:09:36",1
"21/07/01","05:20",0.0,21.6,95.2,1003.6,358.8,0.7,1.2,349.0,0.00,20.8,23.3,"05:13:28",1
"21/07/01","05:30",0.0,21.6,95.2,1004.1,303.1,0.8,1.3,339.4,0.00,20.8,23.0,"05:21:12",1
"21/07/01","05:40",0.0,21.6,95.3,1004.1,303.5,0.7,1.4,305.3,0.00,20.9,23.2,"05:35:12",1
"21/07/01","05:50",0.0,21.7,95.3,1004.3,316.9,0.7,1.9,347.5,0.00,21.0,23.2,"05:43:20",1
"21/07/01","06:00",0.0,21.7,95.4,1003.6,340.9,0.8,1.4,34.2,0.00,21.0,23.2,"05:58:24",1
"21/07/01","06:10",0.0,21.7,95.4,1004.3,328.8,0.5,1.1,295.5,0.00,21.0,23.3,"06:09:48",1
"21/07/01","06:20",0.0,21.6,95.4,1003.8,296.7,1.1,1.8,321.9,0.00,20.9,23.2,"06:14:16",1
"21/07/01","06:30",0.0,21.7,95.5,1004.1,243.6,0.3,1.0,252.1,0.00,21.0,23.2,"06:22:40",1
"21/07/01","06:40",0.0,21.9,95.5,1004.1,342.8,0.5,1.0,294.2,0.00,21.2,23.2,"06:39:12",1
"21/07/01","06:50",0.0,21.9,95.5,1004.1,295.7,0.7,1.2,336.2,0.00,21.2,23.1,"06:42:32",1
"21/07/01","07:00",0.0,21.9,95.5,1004.5,309.0,0.6,1.3,339.9,0.00,21.2,23.2,"06:58:24",1
"21/07/01","07:10",0.0,21.9,95.6,1004.3,349.1,0.8,2.0,341.7,0.02,21.2,23.2,"07:08:56",1
"21/07/01","07:20",0.0,22.1,95.7,1004.5,326.1,0.6,1.9,336.8,0.04,21.4,23.2,"07:12:16",1
"21/07/01","07:30",0.0,22.0,95.6,1004.1,342.5,0.5,1.6,14.2,0.06,21.3,23.2,"07:27:36",1
"21/07/01","07:40",0.0,22.4,95.9,1004.3,66.2,0.5,1.7,77.0,0.08,21.8,23.1,"07:32:40",1
"21/07/01","07:50",0.0,22.9,95.6,1004.5,343.4,0.2,0.9,37.4,0.08,22.2,23.2,"07:49:20",1
"21/07/01","08:00",0.0,23.3,95.6,1004.3,317.3,0.2,0.8,256.5,0.08,22.6,23.2,"07:54:08",1
"21/07/01","08:10",0.0,23.4,95.4,1004.1,123.0,0.5,1.2,155.4,0.08,22.7,23.4,"08:05:36",1
"21/07/01","08:20",0.0,23.4,95.6,1004.1,326.3,0.7,1.6,331.0,0.09,22.7,23.3,"08:16:40",1
"21/07/01","08:30",0.0,23.4,95.3,1004.3,339.1,0.8,1.4,245.6,0.07,22.6,23.2,"08:21:28",1
"21/07/01","08:40",0.0,23.2,94.9,1004.5,124.1,0.7,2.7,122.0,0.07,22.4,23.0,"08:39:28",1
"21/07/01","08:50",0.0,22.8,94.6,1004.5,144.7,1.0,2.4,135.6,0.08,21.9,23.2,"08:49:44",1
"21/07/01","09:00",0.0,23.1,94.5,1005.0,127.9,1.0,2.0,122.8,0.10,22.2,23.3,"08:54:08",1
"21/07/01","09:10",0.0,23.2,93.9,1005.0,136.6,0.8,2.4,122.8,0.11,22.2,23.2,"09:09:04",1
"21/07/01","09:20",0.0,23.4,93.4,1004.8,128.1,1.3,2.7,150.6,0.12,22.3,23.2,"09:12:08",1
"21/07/01","09:30",0.0,23.6,92.8,1004.8,163.3,1.1,2.7,123.8,0.15,22.4,23.4,"09:29:04",1
"21/07/01","09:40",0.0,23.8,91.8,1004.5,157.4,1.3,2.6,130.4,0.13,22.4,23.7,"09:39:36",1
"21/07/01","09:50",0.0,23.8,90.2,1004.5,195.1,2.1,3.6,205.6,0.13,22.1,23.7,"09:42:48",1
"21/07/01","10:00",0.0,23.9,89.0,1004.3,188.4,1.8,3.9,230.0,0.06,22.0,23.4,"09:57:04",1
"21/07/01","10:10",0.0,23.8,87.9,1004.5,179.1,2.0,4.2,111.6,0.04,21.7,23.5,"10:01:28",1
"21/07/01","10:20",0.0,23.9,87.0,1004.3,196.2,2.1,3.9,201.5,0.06,21.6,23.6,"10:19:28",1
"21/07/01","10:30",0.0,23.9,85.9,1004.3,181.8,1.8,3.5,210.3,0.06,21.4,23.3,"10:27:44",1
"21/07/01","10:40",0.0,23.8,85.4,1004.3,150.1,1.3,3.2,133.5,0.03,21.2,23.4,"10:38:00",1
"21/07/01","10:50",0.0,24.0,85.1,1004.3,141.5,1.2,2.4,191.6,0.06,21.4,23.6,"10:41:12",1
"21/07/01","11:00",0.0,24.0,84.0,1004.1,99.2,1.1,2.6,114.9,0.06,21.2,23.6,"10:55:36",1
"21/07/01","11:10",0.0,24.3,82.7,1004.1,96.7,1.2,3.2,113.6,0.10,21.2,23.7,"11:02:00",1
"21/07/01","11:20",0.0,24.1,81.2,1003.8,107.3,1.1,4.0,118.4,0.06,20.7,23.5,"11:17:20",1
"21/07/01","11:30",0.0,24.1,80.9,1003.8,138.3,0.7,2.4,138.7,0.03,20.7,23.5,"11:22:00",1
"21/07/01","11:40",0.0,24.1,81.4,1003.4,88.9,0.7,1.6,76.8,0.03,20.8,23.6,"11:34:00",1
"21/07/01","11:50",0.0,24.0,81.6,1003.4,92.9,0.6,1.8,85.5,0.03,20.7,23.6,"11:45:36",1
"21/07/01","12:00",0.0,23.8,81.8,1003.8,112.1,0.8,2.2,129.7,0.03,20.5,23.6,"11:52:24",1
"21/07/01","12:10",0.0,23.9,82.0,1003.4,95.1,0.5,1.3,62.0,0.03,20.7,23.7,"12:06:56",1
"21/07/01","12:20",0.0,23.7,82.3,1003.4,98.4,1.0,2.9,125.3,0.03,20.5,23.6,"12:12:48",1
"21/07/01","12:30",0.0,23.6,82.7,1003.6,130.5,1.0,2.1,187.5,0.03,20.5,23.6,"12:23:12",1
"21/07/01","12:40",0.0,23.6,83.0,1003.6,92.1,0.7,1.8,110.0,0.03,20.6,23.7,"12:38:16",1
"21/07/01","12:50",0.0,23.5,82.8,1003.4,72.4,0.8,2.5,56.1,0.03,20.4,23.7,"12:40:32",1
"21/07/01","13:00",0.0,23.7,82.6,1003.6,81.5,0.8,2.6,104.0,0.03,20.6,23.4,"12:54:00",1
"21/07/01","13:10",0.0,23.8,82.3,1004.1,77.9,0.6,1.8,85.6,0.03,20.6,23.5,"13:03:28",1
"21/07/01","13:20",0.0,24.0,82.2,1004.1,62.5,0.5,1.3,132.4,0.04,20.8,23.4,"13:19:04",1
"21/07/01","13:30",0.0,24.0,81.9,1003.8,113.5,0.8,2.5,121.8,0.04,20.8,23.6,"13:24:48",1
"21/07/01","13:40",0.0,23.8,81.6,1003.8,142.7,1.7,4.2,144.0,0.02,20.5,23.6,"13:32:16",1
"21/07/01","13:50",0.0,23.8,81.6,1003.8,106.0,0.8,2.5,124.0,0.01,20.5,23.5,"13:41:20",1
"21/07/01","14:00",0.0,23.8,81.6,1003.6,95.3,1.1,2.9,129.3,0.02,20.5,23.4,"13:51:12",1
"21/07/01","14:10",0.0,23.8,81.8,1003.8,100.6,1.2,2.7,132.8,0.02,20.5,23.5,"14:06:00",1
"21/07/01","14:20",0.0,23.8,81.9,1003.4,103.2,1.1,2.4,159.9,0.03,20.6,23.6,"14:16:16",1
"21/07/01","14:30",0.0,23.8,81.7,1004.1,81.7,0.8,3.4,126.5,0.02,20.5,23.3,"14:21:20",1
"21/07/01","14:40",0.0,23.9,81.5,1003.6,18.1,1.0,2.4,4.2,0.01,20.6,23.6,"14:31:44",1
"21/07/01","14:50",0.0,23.9,81.5,1003.8,8.6,0.8,2.0,62.2,0.02,20.6,23.5,"14:49:28",1
"21/07/01","15:00",0.0,24.1,81.6,1003.4,86.9,0.8,2.4,68.2,0.04,20.8,23.6,"14:54:00",1
"21/07/01","15:10",0.0,24.4,81.3,1003.4,101.6,1.1,2.7,107.9,0.09,21.0,23.7,"15:02:56",1
"21/07/01","15:20",0.0,24.7,80.4,1003.1,116.2,1.0,2.5,141.5,0.10,21.1,23.3,"15:14:40",1
"21/07/01","15:30",0.0,25.2,79.7,1002.6,126.9,1.2,2.6,117.1,0.15,21.5,23.7,"15:27:28",1
"21/07/01","15:40",0.0,25.3,77.9,1003.1,144.4,1.7,3.6,127.3,0.16,21.2,23.5,"15:31:52",1
"21/07/01","15:50",0.0,25.8,77.3,1002.9,144.8,1.5,3.4,152.3,0.20,21.6,23.4,"15:48:08",1
"21/07/01","16:00",0.0,25.6,75.5,1002.9,140.1,1.1,3.9,103.7,0.10,21.0,23.6,"15:50:48",1
"21/07/01","16:10",0.0,24.9,76.4,1002.9,126.8,1.5,3.5,113.3,0.03,20.5,23.4,"16:06:48",1
"21/07/01","16:20",0.0,24.8,77.2,1002.9,114.2,1.0,2.4,75.0,0.05,20.6,23.6,"16:12:16",1
"21/07/01","16:30",0.0,24.7,77.8,1002.6,99.9,1.0,1.9,258.6,0.04,20.6,23.6,"16:20:32",1
"21/07/01","16:40",0.0,24.8,78.1,1003.1,95.6,0.6,1.7,95.3,0.04,20.8,23.6,"16:33:04",1
"21/07/01","16:50",0.0,24.7,78.1,1003.1,95.5,0.8,3.1,158.2,0.03,20.7,23.6,"16:44:40",1
"21/07/01","17:00",0.0,24.7,78.4,1002.9,86.8,0.7,2.1,96.1,0.04,20.7,23.4,"16:59:28",1
"21/07/01","17:10",0.0,24.7,78.3,1002.9,80.5,0.7,2.0,76.3,0.04,20.7,23.6,"17:02:32",1
"21/07/01","17:20",0.0,24.9,77.8,1002.4,67.9,0.7,1.9,91.9,0.04,20.8,23.6,"17:13:28",1
"21/07/01","17:30",0.0,24.8,77.8,1003.1,46.3,0.8,2.4,46.3,0.04,20.7,23.7,"17:22:08",1
"21/07/01","17:40",0.0,24.8,77.9,1002.9,29.3,0.7,1.6,43.1,0.04,20.7,23.6,"17:39:20",1
"21/07/01","17:50",0.0,24.9,78.0,1003.1,5.1,0.6,2.1,19.5,0.04,20.8,23.6,"17:47:04",1
"21/07/01","18:00",0.0,24.8,77.6,1003.1,20.5,1.0,2.5,30.3,0.04,20.7,23.5,"17:50:32",1
"21/07/01","18:10",0.0,24.6,77.8,1003.1,74.6,0.8,2.2,105.5,0.02,20.5,23.6,"18:05:20",1
"21/07/01","18:20",0.0,24.5,78.3,1003.1,43.7,0.7,1.9,54.0,0.01,20.5,23.6,"18:15:20",1
"21/07/01","18:30",0.0,24.4,78.8,1003.1,36.0,0.6,1.8,18.8,0.01,20.5,23.5,"18:20:56",1
"21/07/01","18:40",0.0,24.4,79.3,1003.1,42.8,0.6,1.4,123.1,0.02,20.6,23.6,"18:35:12",1
"21/07/01","18:50",0.0,24.6,79.5,1003.4,80.5,0.5,1.6,34.0,0.03,20.9,23.5,"18:40:08",1
"21/07/01","19:00",0.0,24.4,79.7,1003.1,77.5,0.6,1.9,63.0,0.02,20.7,23.6,"18:56:32",1
"21/07/01","19:10",0.0,24.4,80.0,1003.6,115.3,0.5,1.6,137.8,0.01,20.8,23.6,"19:04:16",1
"21/07/01","19:20",0.0,24.0,81.3,1003.8,150.8,1.5,3.5,126.4,0.00,20.6,23.5,"19:15:36",1
"21/07/01","19:30",0.0,23.5,83.1,1003.8,149.2,1.2,2.7,139.0,0.00,20.5,23.7,"19:23:36",1
"21/07/01","19:40",0.0,23.0,84.4,1003.6,150.9,0.6,2.4,142.4,0.00,20.3,23.5,"19:30:16",1
"21/07/01","19:50",0.0,22.9,85.2,1003.6,128.6,0.5,1.3,86.1,0.00,20.3,23.5,"19:43:36",1
"21/07/01","20:00",0.0,22.6,86.0,1004.3,262.7,0.6,1.1,334.6,0.00,20.2,23.4,"19:59:04",1
"21/07/01","20:10",0.0,22.5,86.5,1003.8,327.7,0.7,1.0,323.5,0.00,20.2,23.4,"20:00:32",1
"21/07/01","20:20",0.0,22.6,87.1,1004.1,313.4,1.0,1.4,350.2,0.00,20.4,23.6,"20:17:28",1
"21/07/01","20:30",0.0,22.5,87.6,1003.4,291.5,0.7,1.1,320.8,0.00,20.4,23.7,"20:20:24",1
"21/07/01","20:40",0.0,22.4,88.1,1004.1,307.8,0.7,1.2,332.5,0.00,20.4,23.5,"20:31:04",1
"21/07/01","20:50",0.0,22.5,88.7,1003.8,335.0,0.8,1.2,312.6,0.00,20.6,23.5,"20:42:40",1
"21/07/01","21:00",0.0,22.4,89.0,1004.1,310.6,0.7,1.2,352.0,0.00,20.5,23.2,"20:52:00",1
"21/07/01","21:10",0.0,22.2,89.3,1004.3,269.3,0.6,1.0,272.1,0.00,20.4,23.3,"21:08:16",1
"21/07/01","21:20",0.0,22.1,89.7,1004.3,301.9,0.3,0.9,307.3,0.00,20.4,23.4,"21:10:08",1
"21/07/01","21:30",0.0,22.1,89.9,1004.3,328.6,0.5,1.0,303.9,0.00,20.4,23.4,"21:29:36",1
"21/07/01","21:40",0.0,22.1,90.3,1004.8,332.2,1.1,1.7,338.3,0.00,20.5,23.6,"21:31:36",1
"21/07/01","21:50",0.0,22.0,90.6,1004.8,306.2,0.7,1.2,335.4,0.00,20.4,23.3,"21:40:32",1
"21/07/01","22:00",0.0,22.0,90.9,1004.5,326.1,1.0,1.7,338.5,0.00,20.5,23.4,"21:59:52",1
"21/07/01","22:10",0.0,21.9,91.1,1004.5,328.0,1.2,1.6,335.8,0.00,20.4,23.2,"22:00:08",1
"21/07/01","22:20",0.0,21.8,91.4,1004.5,322.4,1.1,1.7,335.4,0.00,20.4,23.2,"22:15:52",1
"21/07/01","22:30",0.0,21.7,91.6,1004.5,301.0,0.6,1.0,272.2,0.00,20.3,23.5,"22:28:32",1
"21/07/01","22:40",0.0,21.7,91.8,1004.5,321.2,0.7,1.4,340.3,0.00,20.3,23.4,"22:38:32",1
"21/07/01","22:50",0.0,21.7,92.1,1004.5,329.6,1.5,2.0,334.1,0.00,20.4,23.4,"22:41:52",1
"21/07/01","23:00",0.0,21.7,92.3,1004.5,288.3,1.1,1.7,328.8,0.00,20.4,23.2,"22:50:16",1
"21/07/01","23:10",0.0,21.7,92.5,1004.3,306.1,1.2,1.9,320.1,0.00,20.5,23.2,"23:09:12",1
"21/07/01","23:20",0.0,21.8,92.6,1004.1,294.6,1.0,1.4,315.0,0.00,20.6,23.4,"23:10:16",1
"21/07/01","23:30",0.0,21.8,92.7,1004.1,302.4,0.7,1.3,330.4,0.00,20.6,23.4,"23:28:56",1
"21/07/01","23:40",0.0,21.9,92.9,1004.3,326.7,1.3,2.1,337.1,0.00,20.7,23.1,"23:33:12",1
"21/07/01","23:50",0.0,21.9,93.0,1004.1,310.1,1.3,1.9,321.5,0.00,20.8,23.3,"23:43:52",1
"21/07/01","24:00",0.0,21.9,93.1,1003.8,329.3,1.0,1.9,329.2,0.00,20.8,23.3,"23:50:24",1
